User: anonymous   Login
Location: Unspecified
(0.0000°N, 0.0000°E)
Time: 13:11:43
(UTC+01:00)
Language:

Milstar 3 Cent rocket - Orbit

View from above orbital plane
View from above orbital plane
View from above satellite
View from above satellite

Ground track
Ground track

The orbit data is extracted from the following two-line orbital elements,

1 25725U 99023B   16314.93147650 0.00000000  00000-0  00000-0 0    07
2 25725  28.3141 348.0401 2384418 148.0622 211.9373  9.67233005    06
Epoch (UTC): 09 November 2016 22:21:19
Eccentricity: 0.2384418
inclination: 28.3141°
perigee height: 708 km
apogee height: 5145 km
right ascension of ascending node: 348.0401°
argument of perigee: 148.0622°
revolutions per day: 9.67233005
mean anomaly at epoch: 211.9373°
orbit number at epoch: 0

The dashed part of the orbit path shows where the satellite is in the earth's shadow,  

DLR